Weather History for KCDJ - April, 2012

Change the Weather History Date:

Thursday, April 26, 2012

  Actual Average (KIRK) Record (KIRK)
Temperature  
Mean Temperature 65 °F 55 °F  
Max Temperature 78 °F 66 °F - ()
Min Temperature 53 °F 44 °F - ()
Degree Days  
Heating Degree Days 0 10  
Month to date heating degree days 365  
Since 1 July heating degree days 5652  
Cooling Degree Days 0 0  
Month to date cooling degree days 0  
Year to date cooling degree days 0  
Growing Degree Days 15 (Base 50)    
Moisture  
Dew Point 48 °F    
Average Humidity 53    
Maximum Humidity 90    
Minimum Humidity 36    
Precipitation  
Precipitation 0.00 in 0.16 in - ()
Month to date precipitation 3.14  
Year to date precipitation 8.49  
Sea Level Pressure  
Sea Level Pressure 29.91 in    
Wind  
Wind Speed 5 mph (NNE)    
Max Wind Speed 12 mph    
Max Gust Speed 22 mph    
T = Trace of Precipitation, MM = Missing Value Source: NWS Daily Summary

Daily Weather History Graph

Daily Weather History Graph

Search for Another Location

Airport or City:

Trip Planner

Search our weather history database for the weather conditions in past years. The results will help you decide how hot, cold, wet, or windy it might be!

Date:

Astronomy

Apr. 26, 2012 Rise Set
Actual Time 6:20 AM CDT 8:04 PM CDT
Civil Twilight 5:51 AM CDT 8:33 PM CDT
Nautical Twilight 5:16 AM CDT 9:08 PM CDT
Astronomical Twilight 4:39 AM CDT 9:45 PM CDT
Moon 10:00 AM CDT (4/26) 12:09 AM CDT (4/26)
Length of Visible Light 14h 41m
Length of Day
13h 43m
Waxing Crescent, 24% of the Moon is Illuminated
Apr 26
Waxing Crescent
Apr 29
First Quarter
May 5
Full
May 12
Last Quarter
May 20
New

Hourly Weather History & Observations

Time (CDT) Temp. Dew Point Humidity Pressure Visibility Wind Dir Wind Speed Gust Speed Precip Events Conditions
12:52 AM 72.0 °F 48.9 °F 44% 29.71 in - NNW 4.6 mph - N/A   Unknown
1:52 AM 69.1 °F 50.0 °F 51% 29.73 in - NNW 6.9 mph - N/A   Unknown
2:52 AM 64.9 °F 51.1 °F 61% 29.76 in - Calm Calm - N/A   Unknown
3:52 AM 60.1 °F 51.1 °F 72% 29.79 in - Calm Calm - N/A   Unknown
4:52 AM 57.0 °F 51.1 °F 81% 29.82 in - Calm Calm - N/A   Unknown
5:52 AM 53.1 °F 50.0 °F 89% 29.83 in - Calm Calm - N/A   Unknown
6:52 AM 54.0 °F 51.1 °F 90% 29.85 in - Calm Calm - N/A   Unknown
7:52 AM 63.0 °F 53.1 °F 70% 29.87 in - NNW 3.5 mph - N/A   Unknown
8:52 AM 68.0 °F 54.0 °F 61% 29.89 in - Variable 3.5 mph - N/A   Unknown
9:52 AM 71.1 °F 53.1 °F 53% 29.92 in - North 9.2 mph - N/A   Unknown
10:52 AM 73.0 °F 51.1 °F 46% 29.94 in - North 11.5 mph 21.9 mph N/A   Unknown
11:52 AM 75.0 °F 53.1 °F 46% 29.95 in - North 11.5 mph 17.3 mph N/A   Unknown
12:52 PM 75.9 °F 48.9 °F 38% 29.95 in - NNE 8.1 mph - N/A   Unknown
1:52 PM 75.9 °F 48.9 °F 38% 29.96 in - North 9.2 mph 18.4 mph N/A   Unknown
2:52 PM 77.0 °F 51.1 °F 40% 29.96 in - NE 10.4 mph 18.4 mph N/A   Unknown
3:52 PM 75.9 °F 51.1 °F 42% 29.97 in - North 5.8 mph - N/A   Unknown
4:52 PM 75.0 °F 46.0 °F 36% 29.97 in - NNE 8.1 mph - N/A   Unknown
5:52 PM 73.0 °F 46.0 °F 38% 29.99 in - NE 10.4 mph - N/A   Unknown
6:52 PM 70.0 °F 46.0 °F 42% 29.99 in - NE 10.4 mph - N/A   Unknown
7:52 PM 66.9 °F 44.1 °F 44% 29.98 in - NNE 5.8 mph - N/A   Unknown
8:52 PM 64.0 °F 43.0 °F 46% 29.99 in - NNE 5.8 mph - N/A   Unknown
9:52 PM 62.1 °F 42.1 °F 48% 30.00 in - NE 6.9 mph - N/A   Unknown
10:52 PM 61.0 °F 39.9 °F 46% 30.01 in - ENE 8.1 mph - N/A   Unknown
11:52 PM 60.1 °F 37.9 °F 44% 30.02 in - East 5.8 mph - N/A   Unknown